Wind_Speed
10 11 11 12 12 13 14 14 15 16 17 18 17 13 13 12 12 11 11 11 11 10 10 9 9 11 3 2 5 3 3 4 4 7 7 4 4 1 2 2 4 4 4 5 8 13 11
10 11 12 12 13 12 13 14 15 16 18 19 18 15 15 14 12 12 12 11 10 9 9 7 8 8 1 2 2 2 3 4 3 4 3 3 1 2 2 3 2 3 7 16 11 10 6
11 11 12 12 13 14 14 15 16 16 17 19 20 17 16 15 14 12 12 10 9 8 7 6 6 6 1 8 2 4 5 5 5 3 1 1 2 2 1 4 2 5 8 9 3 3 5
11 12 13 13 14 14 15 16 16 17 18 18 19 20 18 16 15 13 12 11 9 6 5 4 4 3 5 3 5 7 7 5 4 5 5 4 3 2 2 4 5 4 0 6 7 3 4
11 12 13 14 15 15 16 17 18 18 19 19 20 20 21 18 17 13 13 11 7 4 3 3 2 1 7 4 4 2 5 3 3 1 2 1 1 0 3 3 4 4 5 6 9 3 4
12 13 14 15 16 17 18 19 20 21 22 22 21 21 22 19 17 14 14 7 1 2 1 1 1 3 4 2 2 2 3 3 1 2 2 3 4 2 3 4 4 7 6 5 9 6 3
13 14 16 18 18 19 20 21 21 22 24 25 24 22 22 21 13 13 12 2 5 2 0 6 2 3 3 6 6 1 1 2 1 4 2 3 3 5 8 6 5 5 4 8 14 7 4
17 18 18 19 20 21 22 22 23 24 25 26 27 23 23 21 9 11 8 6 2 1 7 4 5 5 8 2 3 1 2 1 2 2 2 4 4 3 5 6 6 5 7 8 8 3 3
13 14 15 16 16 17 18 20 22 23 24 26 27 26 24 21 5 7 10 5 2 1 1 5 4 3 1 3 3 2 4 1 0 2 1 3 5 6 2 7 5 4 5 5 6 10 1
13 11 13 14 16 17 20 20 20 21 23 25 26 26 26 19 1 7 3 5 2 0 4 3 2 1 2 2 3 1 1 1 1 2 3 5 4 3 5 5 1 6 4 5 11 4 2
13 14 12 14 17 18 19 19 20 22 24 25 25 26 24 13 6 2 4 5 3 1 4 2 1 1 2 2 3 1 1 2 2 2 3 6 2 3 4 3 2 9 6 7 2 0 3
14 14 16 18 19 20 20 20 22 22 23 23 24 24 24 10 9 2 6 4 0 5 5 2 1 1 3 1 2 1 0 2 0 2 2 7 3 3 4 4 3 9 5 1 2 1 2
15 16 17 18 19 20 21 22 23 23 23 23 23 22 18 9 5 6 4 2 5 4 1 2 2 1 0 2 2 2 1 3 1 5 5 5 2 3 1 5 1 8 6 5 6 5 4
14 15 16 18 19 21 22 23 25 25 25 22 21 20 11 9 7 6 2 5 2 5 6 0 1 1 4 4 3 1 1 3 3 3 2 3 8 1 0 1 2 4 2 4 4 3 6
14 15 16 17 19 21 22 24 27 29 27 24 20 13 7 1 3 3 4 2 7 7 2 3 1 2 3 2 2 1 4 4 6 8 5 3 6 3 2 1 3 1 3 2 1 1 2
14 15 15 16 18 20 24 27 29 29 27 21 16 8 3 1 3 2 4 7 6 4 2 1 5 6 5 3 3 2 2 4 3 6 2 4 3 2 2 2 2 1 3 2 2 4 5
14 16 15 15 18 20 24 25 27 30 31 17 7 4 4 1 5 4 4 7 5 5 4 6 5 4 7 4 4 3 4 4 5 4 2 4 3 5 1 4 5 1 1 2 3 3 2
14 14 15 18 18 20 23 25 27 28 29 17 7 2 6 1 2 0 3 4 4 4 1 4 2 7 6 5 5 5 7 6 5 7 6 5 4 4 8 1 1 2 4 4 4 3 2
12 13 14 17 18 19 21 25 27 27 23 12 5 3 4 1 3 2 5 5 3 3 2 2 3 4 1 4 3 6 3 3 6 6 6 5 2 2 8 4 2 3 4 3 4 3 5
12 13 14 14 16 17 20 22 26 28 26 5 3 4 4 3 1 1 4 4 4 6 3 2 3 0 0 3 5 4 3 1 3 3 3 5 4 6 7 7 2 3 4 4 5 3 3
11 12 14 15 16 17 19 21 25 30 20 3 2 3 2 4 3 3 3 3 4 5 3 5 1 6 4 3 3 4 2 6 1 3 2 2 5 4 6 8 4 5 10 8 9 7 8
10 11 13 14 15 16 16 19 22 26 20 5 3 3 4 4 4 5 2 2 2 6 4 3 5 12 6 3 4 7 8 3 6 4 1 1 4 3 4 9 9 8 9 11 14 12 15
13 13 13 13 14 15 15 16 17 20 22 8 7 5 2 5 4 3 2 4 5 9 4 5 10 9 8 4 9 11 13 12 10 7 6 5 4 2 10 3 7 7 11 15 7 6 6
14 15 14 13 13 13 14 14 14 13 13 8 3 3 2 4 3 2 7 9 11 9 10 12 13 8 4 15 17 8 9 14 16 15 13 7 6 4 4 1 12 6 3 6 9 9 13
15 14 14 14 14 14 15 14 14 12 10 8 5 2 1 5 3 9 7 4 6 10 8 9 10 5 8 7 5 6 4 5 9 16 16 17 7 3 5 6 14 12 15 7 7 10 10
14 16 16 15 15 15 15 15 16 14 13 10 9 5 2 1 3 1 4 4 6 4 5 3 5 15 4 2 3 4 5 4 4 1 5 7 3 8 3 4 7 4 2 3 4 6 13
16 17 18 18 17 17 17 17 17 17 16 11 8 8 2 4 5 4 3 2 2 4 4 6 4 7 4 2 4 7 9 4 5 6 6 4 2 15 13 11 9 6 5 4 2 7 3
17 17 18 18 19 19 20 20 20 19 18 17 13 12 11 3 8 13 5 5 4 3 3 3 6 1 2 3 3 4 4 5 6 7 5 8 7 5 6 8 17 7 5 8 5 3 2
17 19 20 21 21 21 22 22 21 21 20 19 14 17 19 9 4 10 13 22 22 23 8 4 5 4 3 2 3 3 5 5 9 6 4 8 13 5 10 6 3 5 6 6 1 2 3
Wind_Direction
33 34 29 27 22 20 15 12 12 9 8 7 4 4 359 350 340 331 321 314 307 298 292 298 319 338 343 339 256 312 328 344 350 8 37 48 53 55 308 314 311 213 272 269 262 279 275
29 28 25 22 19 16 15 9 9 8 9 8 10 7 359 353 345 339 333 324 311 301 292 294 316 338 325 292 231 301 306 323 337 3 19 47 121 193 263 249 190 267 276 280 279 272 253
29 24 21 21 19 11 10 11 7 7 8 10 11 5 1 354 346 341 336 331 320 305 292 292 319 344 354 232 233 278 289 306 304 281 261 205 168 63 352 288 313 286 312 317 255 252 276
27 22 20 17 15 13 10 8 5 5 6 8 7 6 358 352 345 339 334 326 314 305 287 286 318 344 250 251 269 278 284 292 288 266 240 260 208 198 197 306 337 322 231 340 287 297 278
25 20 18 16 14 10 7 9 9 8 7 5 3 1 359 351 343 338 332 321 296 280 264 277 317 56 275 299 281 303 262 277 320 1 300 191 36 307 1 4 349 10 286 291 314 204 274
27 24 21 20 15 12 10 11 12 9 7 4 2 359 358 353 344 343 337 325 310 275 241 220 107 28 275 292 296 276 272 244 345 335 56 64 39 1 18 54 293 292 313 281 269 282 229
36 29 26 24 21 15 10 8 8 8 6 3 360 356 357 353 351 354 353 342 12 342 58 207 175 256 270 311 289 213 168 122 86 62 12 17 23 272 269 219 246 280 247 258 282 274 278
31 22 15 12 8 5 2 0 0 1 360 358 358 355 354 354 354 8 19 72 133 249 311 252 245 278 269 275 310 278 167 20 49 300 322 6 242 233 273 256 250 244 275 286 282 214 303
15 6 5 4 3 357 352 349 347 346 347 349 352 353 353 353 352 11 57 73 18 328 274 298 213 203 246 162 275 282 148 85 91 315 239 195 254 321 267 307 303 248 217 258 260 326 219
357 350 347 344 340 343 341 339 342 344 341 342 345 350 351 356 41 2 43 359 348 91 37 269 250 262 94 103 287 221 192 137 274 282 313 225 278 294 301 268 152 305 214 273 302 2 293
11 8 347 340 339 347 347 342 337 337 336 338 341 345 349 355 329 25 328 331 329 164 14 267 241 158 116 174 313 2 6 52 245 262 66 264 298 350 300 254 160 255 312 290 288 302 14
25 20 12 6 1 355 350 346 343 337 333 333 335 341 341 340 315 314 329 323 31 41 261 320 135 302 327 169 245 134 320 53 32 304 211 256 297 238 244 301 207 293 322 59 51 60 19
24 15 10 7 8 4 1 356 349 343 336 333 329 331 332 319 305 314 330 11 29 140 328 243 253 168 131 267 288 180 266 303 232 10 353 322 249 257 240 324 18 12 16 350 358 2 249
17 15 11 6 4 0 357 355 351 347 338 330 325 324 314 288 269 300 345 46 185 244 225 161 181 241 234 176 227 238 296 294 218 116 90 77 328 207 83 129 298 5 85 122 311 308 288
19 13 8 7 2 1 3 358 352 348 342 332 328 323 313 290 199 184 79 91 218 210 216 202 195 229 274 225 226 309 209 221 216 178 172 152 274 300 182 163 118 352 37 177 253 274 355
16 13 9 7 8 6 360 355 351 346 343 341 332 315 292 173 177 136 94 225 231 219 174 155 204 183 236 216 193 199 223 201 226 188 161 198 302 206 281 133 36 119 162 35 21 347 314
19 16 12 11 7 4 3 359 357 352 347 347 335 350 14 111 140 60 190 228 269 244 202 178 229 238 222 220 207 215 246 265 181 154 118 144 133 283 297 193 175 82 118 80 126 142 200
13 16 12 12 3 1 2 2 359 358 354 7 352 338 2 123 61 160 209 219 317 304 48 266 224 216 204 193 220 229 227 235 158 150 168 202 154 250 239 104 51 194 191 141 123 266 222
14 14 15 12 10 5 4 5 2 359 359 341 330 287 354 12 216 255 300 301 286 312 302 334 274 216 167 205 267 197 230 324 158 160 168 186 219 345 335 13 23 209 203 153 111 87 216
356 359 2 5 3 3 2 3 2 357 350 344 320 325 325 47 6 348 341 283 286 334 278 300 275 123 105 245 225 264 248 353 207 213 167 147 180 196 217 228 180 217 207 188 154 145 216
342 341 348 353 356 355 0 2 4 0 5 36 11 291 359 326 358 344 340 328 316 317 345 351 319 31 337 302 294 235 327 341 340 345 80 149 230 200 257 256 235 231 263 221 203 207 198
328 333 331 330 339 350 353 2 3 5 13 42 10 349 345 302 301 319 284 280 293 348 323 327 36 344 353 305 332 312 341 4 252 17 161 355 254 168 261 267 242 249 236 258 228 240 243
333 332 323 322 320 329 348 351 356 8 21 27 4 346 309 294 328 351 328 4 6 358 301 75 7 339 325 303 324 291 277 259 247 239 212 189 195 137 276 268 317 270 215 231 213 197 166
325 322 324 335 328 320 325 334 343 355 8 13 11 323 13 286 334 334 336 328 324 335 291 311 328 319 269 327 313 284 253 247 237 231 207 191 166 172 275 343 265 247 186 208 213 232 211
326 326 330 333 333 333 326 317 319 324 330 326 333 335 1 291 331 298 317 323 341 326 293 285 276 243 307 311 292 294 294 289 237 230 212 207 181 217 225 210 275 292 279 191 187 264 204
328 327 327 327 328 326 325 323 313 303 307 284 290 259 190 322 257 39 345 301 306 336 320 313 340 333 10 265 242 243 243 267 286 121 27 125 118 211 147 207 255 238 332 148 148 281 250
316 316 318 319 320 320 319 317 313 309 290 281 268 220 190 260 256 201 186 140 314 288 266 294 330 327 324 253 250 250 253 250 249 206 174 142 189 219 225 245 262 222 178 162 165 262 303
316 317 316 315 313 310 308 306 303 301 298 284 259 257 220 233 247 244 211 213 235 195 226 298 336 315 269 257 263 253 241 233 248 229 183 185 182 189 206 234 256 166 76 192 231 260 299
310 310 308 306 305 305 306 305 299 294 295 290 275 263 260 228 251 231 229 255 250 238 242 200 239 294 278 336 320 339 318 334 324 294 312 239 226 205 203 223 221 210 216 221 193 259 252
Height
862 859 858 856 854 852 851 849 846 844 841 838 834 831 829 827 825 824 822 820 819 818 817 817 816 814 813 812 809 806 805 805 805 804 803 803 806 808 809 810 810 809 799 792 787 784 782
863 861 860 858 856 854 851 850 847 844 841 838 834 832 829 827 824 823 820 819 817 816 816 815 815 813 813 815 805 805 805 805 805 805 805 805 807 807 809 809 808 801 800 791 783 778 778
864 863 861 859 857 855 853 850 847 845 841 838 835 832 829 826 824 821 819 817 816 815 815 815 814 813 813 810 804 804 805 804 804 804 805 805 805 806 807 807 802 800 802 791 778 774 773
865 864 862 860 858 856 854 851 848 845 842 839 836 833 829 826 823 820 818 816 814 813 813 814 813 813 812 803 803 803 803 804 803 804 804 804 804 805 806 804 801 803 805 802 775 772 769
867 865 863 861 859 857 855 852 849 846 843 840 836 833 829 826 823 819 817 814 813 812 812 813 814 813 811 803 802 802 802 803 803 803 804 805 805 807 807 810 811 810 810 802 791 773 771
868 866 865 863 861 858 856 853 850 847 844 841 837 833 829 825 822 819 815 813 811 812 812 812 813 818 805 804 801 801 801 802 802 803 804 806 811 813 816 815 816 805 808 802 800 777 774
869 867 866 863 861 859 857 854 851 848 844 841 837 833 828 824 821 818 815 813 816 815 812 808 807 807 804 802 801 800 801 802 803 804 808 809 815 815 805 807 801 806 809 807 783 775 776
870 869 868 865 863 860 858 855 852 848 845 841 837 832 828 824 821 819 816 818 823 824 819 805 805 805 803 803 804 800 801 804 804 809 808 813 813 799 800 800 802 803 803 800 780 772 775
870 869 868 866 863 861 858 855 852 849 845 841 836 832 827 824 821 821 820 822 822 822 824 806 802 801 802 804 804 802 802 803 805 808 807 809 798 798 795 795 794 795 793 789 784 778 772
871 870 868 866 863 860 858 855 851 848 844 841 836 832 828 823 824 822 822 823 822 822 835 807 803 800 801 802 805 801 801 804 805 806 806 810 797 795 795 793 792 795 783 783 784 785 792
871 870 867 865 862 859 857 854 850 846 843 840 836 832 828 825 825 823 824 822 822 823 856 806 803 801 801 804 805 803 802 802 805 803 807 798 795 796 796 785 787 788 780 785 781 782 791
871 869 867 865 862 859 856 852 848 845 841 838 835 832 828 826 826 823 822 822 822 839 843 805 802 803 804 804 802 801 802 802 804 806 808 806 800 797 792 788 787 785 780 779 788 792 797
872 870 868 865 861 859 856 852 847 843 839 836 833 830 826 826 827 824 822 823 842 844 806 803 802 803 806 804 802 801 802 806 808 814 809 805 794 790 789 790 786 791 795 809 792 798 789
873 871 869 866 863 860 856 852 847 842 838 833 829 826 823 822 823 825 823 830 837 815 808 799 802 804 804 801 801 800 804 809 806 809 829 830 810 787 788 788 791 796 800 826 804 816 802
874 871 869 866 864 861 856 852 847 842 835 831 825 822 820 820 821 821 828 854 832 813 797 800 801 803 801 801 803 802 804 806 802 807 807 821 801 789 788 787 790 791 804 801 804 810 831
875 872 870 867 865 861 857 853 847 841 835 830 826 821 818 819 820 822 832 829 813 802 797 798 802 799 803 799 802 802 801 795 793 801 798 802 808 790 789 788 791 790 797 808 818 811 799
875 873 871 869 865 862 858 853 848 843 835 829 827 826 821 819 819 827 837 827 805 797 797 801 801 800 802 797 802 803 796 792 791 799 799 805 808 796 793 790 792 797 800 804 812 817 819
878 873 872 869 867 864 858 855 850 844 839 833 831 835 822 821 829 833 827 812 806 798 798 798 798 800 800 799 801 807 801 793 792 797 800 803 817 819 792 788 789 788 790 800 812 806 820
877 874 872 869 866 865 861 855 851 848 844 842 837 832 824 822 831 832 823 815 807 800 800 800 800 801 799 799 800 802 795 792 795 795 800 804 812 828 796 793 790 789 790 793 805 813 812
880 878 873 870 868 865 861 856 852 849 845 842 839 839 830 827 834 828 824 818 812 807 803 801 801 800 801 800 804 795 793 791 795 793 792 795 811 798 803 788 788 789 791 791 797 824 804
879 878 876 874 870 867 862 857 853 849 844 843 841 844 839 841 834 830 828 825 820 815 807 806 801 807 805 805 801 803 798 798 795 795 799 801 806 812 802 799 796 791 791 796 797 795 793
877 876 875 874 872 867 863 858 857 852 846 846 848 848 845 840 836 834 830 826 819 822 816 810 818 822 816 813 810 813 810 805 805 802 800 808 804 805 805 791 795 790 791 787 788 783 783
877 874 871 870 870 869 863 861 860 856 853 853 853 853 851 845 842 835 834 837 832 831 821 823 829 827 820 813 817 815 813 806 801 800 805 809 808 810 783 790 792 785 783 769 768 774 772
878 877 872 868 866 866 865 864 861 860 858 857 857 857 858 852 846 842 841 840 837 837 838 829 827 826 818 813 808 800 799 794 793 790 789 801 806 807 800 788 783 750 750 753 758 752 757
877 874 872 868 866 864 863 862 861 860 859 857 856 857 858 853 850 846 842 842 841 838 835 831 825 823 819 817 812 797 790 783 775 771 777 777 791 795 793 794 750 748 740 750 749 734 739
874 874 871 867 864 863 861 860 859 858 858 855 854 855 856 857 851 846 847 847 845 841 835 827 824 822 819 817 808 803 795 779 770 775 784 784 785 778 797 783 764 740 735 735 739 749 720
871 870 869 867 863 861 859 858 857 855 854 853 851 852 853 852 844 844 845 845 845 844 843 837 830 826 821 817 806 797 788 778 778 772 784 790 790 773 765 757 742 738 735 738 745 726 717
870 867 866 863 860 858 856 854 853 852 850 850 846 847 848 846 839 837 837 842 841 843 842 836 836 825 823 819 803 790 789 778 769 760 771 770 781 777 767 764 744 731 737 739 720 719 720
865 864 863 860 857 854 853 850 848 847 845 844 842 841 841 839 833 829 829 829 831 830 833 834 833 831 824 826 816 813 801 800 787 773 753 758 745 757 747 736 724 729 722 722 723 723 721